DAL3250 KDCA-KBOS

Flight info

Callsign DAL3250
Flight time 1h 11m
Altitude 37000
Route SOOKI6 SWANN BROSS Q419 JFK ROBUC3
Aircraft B77W/H-SDE1E2E3FGHIJ2J3J4J5M1RWXY/LB1D1

Departure

Time 2026-05-06 00:41
Airport Ronald Reagan Washington National Airport (KDCA)

Arrival

Time 2026-05-06 01:52
Airport Boston Logan International Airport (KBOS)
Time Latitude Longitude Altitude Speed Heading
2026-05-06 00:17 38.84836 -77.04070 27 ft 0 kts 299°
2026-05-06 00:27 38.84835 -77.04069 27 ft 1 kts 299°
2026-05-06 00:28 38.84824 -77.04041 26 ft 4 kts 296°
2026-05-06 00:28 38.84812 -77.04012 25 ft 2 kts 299°
2026-05-06 00:28 38.84800 -77.03988 25 ft 4 kts 313°
2026-05-06 00:28 38.84779 -77.03967 25 ft 4 kts 339°
2026-05-06 00:29 38.84754 -77.03962 27 ft 3 kts 17°
2026-05-06 00:29 38.84751 -77.03963 27 ft 2 kts 19°
2026-05-06 00:30 38.84752 -77.03963 27 ft 1 kts 19°
2026-05-06 00:30 38.84753 -77.03963 27 ft 0 kts 19°
2026-05-06 00:32 38.84757 -77.03957 27 ft 1 kts 45°
2026-05-06 00:32 38.84758 -77.03945 25 ft 1 kts 84°
2026-05-06 00:33 38.84754 -77.03935 26 ft 2 kts 116°
2026-05-06 00:33 38.84751 -77.03901 27 ft 5 kts 64°
2026-05-06 00:33 38.84786 -77.03881 28 ft 6 kts 360°
2026-05-06 00:33 38.84861 -77.03888 31 ft 22 kts 355°
2026-05-06 00:34 38.85036 -77.03904 26 ft 26 kts 356°
2026-05-06 00:34 38.85214 -77.03922 26 ft 26 kts 354°
2026-05-06 00:34 38.85392 -77.03943 29 ft 26 kts 356°
2026-05-06 00:34 38.85558 -77.03957 32 ft 17 kts 356°
2026-05-06 00:35 38.85675 -77.03969 32 ft 17 kts 355°
2026-05-06 00:35 38.85793 -77.03980 33 ft 17 kts 355°
2026-05-06 00:35 38.85912 -77.03992 32 ft 17 kts 355°
2026-05-06 00:35 38.85987 -77.03988 31 ft 0 kts 14°
2026-05-06 00:36 38.85989 -77.03988 31 ft 2 kts 14°
2026-05-06 00:36 38.86059 -77.03958 29 ft 14 kts 30°
2026-05-06 00:36 38.86065 -77.03876 28 ft 7 kts 149°
2026-05-06 00:36 38.86023 -77.03863 29 ft 0 kts 175°
2026-05-06 00:40 38.86022 -77.03863 29 ft 1 kts 175°
2026-05-06 00:40 38.85789 -77.03840 31 ft 87 kts 176°
2026-05-06 00:40 38.84763 -77.03729 67 ft 202 kts 177°
2026-05-06 00:41 38.83237 -77.03607 1304 ft 221 kts 181°
2026-05-06 00:41 38.81733 -77.03413 2271 ft 221 kts 175°
2026-05-06 00:41 38.80236 -77.03033 3450 ft 220 kts 175°
2026-05-06 00:41 38.78738 -77.02666 4586 ft 219 kts 176°
2026-05-06 00:42 38.77242 -77.02182 5531 ft 231 kts 161°
2026-05-06 00:42 38.75946 -77.00827 6472 ft 254 kts 135°
2026-05-06 00:42 38.75166 -76.98648 7065 ft 290 kts 103°
2026-05-06 00:42 38.75086 -76.96064 7826 ft 303 kts 94°
2026-05-06 00:43 38.75284 -76.93335 8638 ft 315 kts 74°
2026-05-06 00:43 38.76401 -76.90937 9685 ft 316 kts 42°
2026-05-06 00:43 38.78159 -76.89290 10653 ft 314 kts 28°
2026-05-06 00:43 38.80102 -76.87809 11134 ft 339 kts 27°
2026-05-06 00:44 38.82233 -76.86201 11368 ft 371 kts 27°
2026-05-06 00:44 38.84541 -76.84433 11723 ft 397 kts 28°
2026-05-06 00:44 38.86903 -76.82542 12557 ft 407 kts 33°
2026-05-06 00:44 38.89134 -76.80218 13505 ft 418 kts 40°
2026-05-06 00:45 38.91271 -76.77641 14423 ft 425 kts 42°
2026-05-06 00:45 38.93419 -76.74990 15375 ft 431 kts 41°
2026-05-06 00:45 38.95589 -76.72366 16267 ft 437 kts 41°
2026-05-06 00:45 38.97850 -76.69709 17130 ft 444 kts 40°
2026-05-06 00:46 39.00157 -76.67036 17990 ft 451 kts 40°
2026-05-06 00:46 39.02490 -76.64286 18759 ft 458 kts 42°
2026-05-06 00:46 39.04747 -76.61394 19525 ft 464 kts 44°
2026-05-06 00:46 39.07013 -76.58430 20255 ft 470 kts 44°
2026-05-06 00:47 39.09328 -76.55427 21026 ft 472 kts 45°
2026-05-06 00:47 39.11322 -76.52056 21551 ft 481 kts 62°
2026-05-06 00:47 39.12484 -76.47998 22192 ft 485 kts 81°
2026-05-06 00:47 39.12937 -76.43716 22881 ft 485 kts 85°
2026-05-06 00:48 39.13340 -76.39368 23528 ft 492 kts 85°
2026-05-06 00:48 39.13774 -76.34972 24128 ft 496 kts 84°
2026-05-06 00:48 39.14246 -76.30554 24784 ft 499 kts 83°
2026-05-06 00:48 39.14740 -76.26108 25427 ft 502 kts 83°
2026-05-06 00:49 39.15240 -76.21637 26034 ft 506 kts 83°
2026-05-06 00:49 39.15757 -76.17131 26602 ft 510 kts 82°
2026-05-06 00:49 39.16286 -76.12600 27154 ft 514 kts 82°
2026-05-06 00:49 39.16819 -76.08029 27725 ft 517 kts 82°
2026-05-06 00:50 39.17352 -76.03430 28262 ft 520 kts 82°
2026-05-06 00:50 39.17850 -75.99099 28743 ft 524 kts 81°
2026-05-06 00:50 39.18427 -75.94496 29174 ft 525 kts 77°
2026-05-06 00:50 39.19601 -75.90031 29487 ft 529 kts 63°
2026-05-06 00:51 39.21479 -75.85984 30033 ft 525 kts 51°
2026-05-06 00:51 39.23884 -75.82505 30651 ft 514 kts 38°
2026-05-06 00:51 39.26617 -75.79567 31207 ft 509 kts 35°
2026-05-06 00:51 39.29370 -75.76692 31733 ft 508 kts 35°
2026-05-06 00:52 39.32091 -75.73799 32312 ft 506 kts 36°
2026-05-06 00:52 39.34643 -75.70665 32908 ft 507 kts 41°
2026-05-06 00:52 39.37047 -75.67351 33518 ft 505 kts 42°
2026-05-06 00:52 39.39423 -75.64000 33964 ft 505 kts 43°
2026-05-06 00:53 39.41787 -75.60646 34346 ft 504 kts 42°
2026-05-06 00:53 39.44150 -75.57302 34773 ft 503 kts 42°
2026-05-06 00:53 39.46519 -75.53968 34920 ft 506 kts 41°
2026-05-06 00:54 39.51285 -75.47299 34903 ft 503 kts 41°
2026-05-06 00:54 39.56019 -75.40680 34911 ft 499 kts 41°
2026-05-06 00:55 39.60729 -75.34087 34916 ft 497 kts 41°
2026-05-06 00:55 39.65394 -75.27541 34910 ft 497 kts 41°
2026-05-06 00:56 39.70091 -75.20932 34904 ft 498 kts 42°
2026-05-06 00:56 39.74794 -75.14299 34903 ft 499 kts 42°
2026-05-06 00:57 39.79516 -75.07628 35163 ft 504 kts 42°
2026-05-06 00:57 39.81881 -75.04279 35568 ft 501 kts 42°
2026-05-06 00:57 39.84179 -75.01018 36054 ft 497 kts 42°
2026-05-06 00:57 39.86435 -74.97812 36494 ft 494 kts 42°
2026-05-06 00:58 39.88765 -74.94501 36829 ft 494 kts 42°
2026-05-06 00:58 39.93444 -74.87855 36938 ft 501 kts 42°
2026-05-06 00:59 39.98138 -74.81160 36909 ft 497 kts 42°
2026-05-06 00:59 40.02777 -74.74526 36910 ft 494 kts 42°
2026-05-06 01:00 40.07399 -74.67909 36909 ft 493 kts 42°
2026-05-06 01:00 40.12018 -74.61282 36909 ft 494 kts 42°
2026-05-06 01:01 40.16647 -74.54624 36893 ft 494 kts 42°
2026-05-06 01:01 40.18940 -74.51324 36648 ft 487 kts 41°
2026-05-06 01:01 40.21311 -74.48217 36130 ft 478 kts 36°
2026-05-06 01:01 40.23860 -74.45404 35197 ft 481 kts 33°
2026-05-06 01:02 40.26499 -74.42638 34154 ft 489 kts 33°
2026-05-06 01:02 40.29143 -74.39894 33008 ft 497 kts 33°
2026-05-06 01:02 40.31873 -74.37041 31749 ft 506 kts 34°
2026-05-06 01:02 40.34619 -74.34140 30564 ft 514 kts 36°
2026-05-06 01:03 40.37392 -74.31175 29698 ft 514 kts 37°
2026-05-06 01:03 40.40140 -74.28217 29007 ft 507 kts 37°
2026-05-06 01:03 40.42850 -74.25295 28521 ft 498 kts 37°
2026-05-06 01:03 40.45500 -74.22442 28322 ft 486 kts 37°
2026-05-06 01:04 40.48080 -74.19670 28238 ft 490 kts 37°
2026-05-06 01:04 40.50745 -74.16803 28131 ft 500 kts 38°
2026-05-06 01:04 40.53250 -74.13572 27982 ft 507 kts 49°
2026-05-06 01:04 40.55255 -74.09840 27849 ft 506 kts 59°
2026-05-06 01:05 40.56829 -74.05643 27743 ft 505 kts 69°
2026-05-06 01:05 40.57860 -74.01335 27623 ft 502 kts 74°
2026-05-06 01:05 40.58765 -73.97101 27487 ft 501 kts 74°
2026-05-06 01:05 40.59715 -73.92704 27362 ft 499 kts 73°
2026-05-06 01:06 40.60699 -73.88322 27234 ft 498 kts 73°
2026-05-06 01:06 40.61702 -73.83988 27098 ft 496 kts 73°
2026-05-06 01:06 40.62729 -73.79637 27015 ft 494 kts 70°
2026-05-06 01:06 40.64197 -73.75562 26920 ft 494 kts 54°
2026-05-06 01:07 40.66374 -73.72203 26945 ft 490 kts 44°
2026-05-06 01:07 40.68717 -73.68983 26935 ft 494 kts 44°
2026-05-06 01:07 40.71091 -73.65664 26926 ft 495 kts 45°
2026-05-06 01:07 40.73426 -73.62324 26912 ft 495 kts 45°
2026-05-06 01:08 40.75738 -73.58956 26923 ft 494 kts 46°
2026-05-06 01:08 40.77257 -73.56726 26923 ft 493 kts 46°
2026-05-06 01:08 40.79545 -73.53355 26894 ft 492 kts 46°
2026-05-06 01:08 40.81824 -73.49996 26915 ft 491 kts 46°
2026-05-06 01:09 40.84104 -73.46641 26896 ft 490 kts 46°
2026-05-06 01:09 40.87120 -73.42201 26895 ft 489 kts 46°
2026-05-06 01:09 40.88649 -73.39946 26898 ft 489 kts 46°
2026-05-06 01:09 40.91637 -73.35532 26865 ft 482 kts 46°
2026-05-06 01:10 40.93139 -73.33311 26768 ft 477 kts 46°
2026-05-06 01:10 40.95337 -73.30057 26536 ft 471 kts 46°
2026-05-06 01:10 40.97512 -73.26833 26298 ft 467 kts 46°
2026-05-06 01:10 40.99672 -73.23629 25947 ft 466 kts 46°
2026-05-06 01:11 41.01790 -73.20486 25591 ft 465 kts 46°
2026-05-06 01:11 41.03943 -73.17287 25245 ft 464 kts 46°
2026-05-06 01:11 41.06084 -73.14101 24942 ft 462 kts 46°
2026-05-06 01:11 41.08213 -73.10930 24636 ft 460 kts 46°
2026-05-06 01:12 41.10333 -73.07768 24378 ft 458 kts 46°
2026-05-06 01:12 41.12448 -73.04610 24070 ft 456 kts 47°
2026-05-06 01:12 41.14552 -73.01466 23793 ft 455 kts 47°
2026-05-06 01:12 41.16568 -72.98451 23480 ft 455 kts 47°
2026-05-06 01:13 41.18669 -72.95307 23133 ft 453 kts 47°
2026-05-06 01:13 41.20738 -72.92182 22976 ft 446 kts 49°
2026-05-06 01:13 41.22477 -72.88790 22841 ft 443 kts 60°
2026-05-06 01:13 41.23885 -72.85141 22741 ft 445 kts 63°
2026-05-06 01:14 41.26559 -72.77710 22532 ft 450 kts 64°
2026-05-06 01:14 41.27920 -72.73974 22407 ft 449 kts 63°
2026-05-06 01:14 41.29305 -72.70249 22293 ft 449 kts 63°
2026-05-06 01:15 41.30702 -72.66541 22228 ft 448 kts 63°
2026-05-06 01:15 41.32113 -72.62826 22114 ft 448 kts 62°
2026-05-06 01:15 41.33521 -72.59126 22006 ft 448 kts 62°
2026-05-06 01:15 41.34911 -72.55472 21905 ft 447 kts 62°
2026-05-06 01:16 41.36311 -72.51784 21798 ft 447 kts 62°
2026-05-06 01:16 41.37714 -72.48084 21682 ft 446 kts 62°
2026-05-06 01:16 41.39107 -72.44402 21588 ft 445 kts 62°
2026-05-06 01:16 41.40493 -72.40732 21493 ft 444 kts 62°
2026-05-06 01:17 41.41880 -72.37053 21376 ft 443 kts 62°
2026-05-06 01:17 41.43243 -72.33435 21276 ft 443 kts 63°
2026-05-06 01:17 41.44627 -72.29755 21183 ft 442 kts 63°
2026-05-06 01:17 41.45999 -72.26104 21066 ft 442 kts 63°
2026-05-06 01:18 41.47376 -72.22438 20949 ft 441 kts 62°
2026-05-06 01:18 41.48742 -72.18779 20733 ft 443 kts 63°
2026-05-06 01:18 41.50071 -72.15156 20426 ft 443 kts 63°
2026-05-06 01:18 41.51428 -72.11432 20126 ft 438 kts 63°
2026-05-06 01:19 41.52735 -72.07842 19820 ft 433 kts 63°
2026-05-06 01:19 41.54049 -72.04240 19523 ft 430 kts 63°
2026-05-06 01:19 41.55359 -72.00648 19226 ft 428 kts 64°
2026-05-06 01:19 41.56541 -71.97150 18944 ft 427 kts 68°
2026-05-06 01:20 41.57623 -71.93462 18666 ft 426 kts 69°
2026-05-06 01:20 41.58687 -71.89770 18381 ft 425 kts 69°
2026-05-06 01:20 41.59768 -71.86090 18050 ft 425 kts 69°
2026-05-06 01:20 41.60849 -71.82435 17734 ft 423 kts 69°
2026-05-06 01:21 41.61919 -71.78816 17420 ft 421 kts 69°
2026-05-06 01:21 41.62993 -71.75177 17129 ft 419 kts 69°
2026-05-06 01:21 41.64063 -71.71550 16845 ft 417 kts 69°
2026-05-06 01:21 41.65121 -71.67954 16557 ft 412 kts 69°
2026-05-06 01:22 41.66159 -71.64425 16277 ft 404 kts 69°
2026-05-06 01:22 41.67176 -71.60960 15997 ft 396 kts 69°
2026-05-06 01:22 41.68170 -71.57568 15739 ft 388 kts 69°
2026-05-06 01:22 41.69138 -71.54263 15617 ft 376 kts 69°
2026-05-06 01:23 41.70075 -71.51057 15249 ft 373 kts 69°
2026-05-06 01:23 41.71010 -71.47853 14978 ft 367 kts 69°
2026-05-06 01:23 41.71943 -71.44656 14721 ft 361 kts 69°
2026-05-06 01:23 41.72922 -71.41590 14491 ft 355 kts 62°
2026-05-06 01:24 41.74134 -71.38738 14311 ft 353 kts 58°
2026-05-06 01:24 41.75416 -71.35931 14086 ft 354 kts 58°
2026-05-06 01:24 41.76660 -71.33131 13856 ft 354 kts 59°
2026-05-06 01:24 41.77897 -71.30268 13595 ft 355 kts 59°
2026-05-06 01:25 41.79121 -71.27404 13324 ft 355 kts 59°
2026-05-06 01:25 41.80339 -71.24540 13071 ft 352 kts 60°
2026-05-06 01:25 41.81544 -71.21708 12834 ft 348 kts 60°
2026-05-06 01:25 41.82732 -71.18912 12585 ft 343 kts 60°
2026-05-06 01:26 41.83911 -71.16139 12357 ft 340 kts 60°
2026-05-06 01:26 41.85076 -71.13394 12118 ft 336 kts 60°
2026-05-06 01:26 41.86228 -71.10695 11917 ft 331 kts 59°
2026-05-06 01:26 41.87378 -71.08032 11719 ft 328 kts 59°
2026-05-06 01:27 41.88521 -71.05396 11514 ft 326 kts 59°
2026-05-06 01:27 41.89655 -71.02775 11331 ft 324 kts 59°
2026-05-06 01:27 41.90783 -71.00165 11134 ft 322 kts 59°
2026-05-06 01:27 41.91851 -70.97690 10949 ft 321 kts 59°
2026-05-06 01:28 41.92983 -70.95062 10752 ft 320 kts 59°
2026-05-06 01:28 41.94085 -70.92504 10561 ft 320 kts 59°
2026-05-06 01:28 41.95200 -70.89908 10377 ft 321 kts 59°
2026-05-06 01:28 41.96309 -70.87326 10168 ft 317 kts 59°
2026-05-06 01:29 41.97392 -70.84803 9977 ft 312 kts 59°
2026-05-06 01:29 41.98468 -70.82296 9786 ft 309 kts 59°
2026-05-06 01:29 41.99541 -70.79791 9594 ft 307 kts 59°
2026-05-06 01:29 42.00600 -70.77318 9421 ft 306 kts 59°
2026-05-06 01:30 42.01765 -70.74972 9176 ft 302 kts 49°
2026-05-06 01:30 42.03149 -70.72901 9021 ft 303 kts 44°
2026-05-06 01:30 42.04635 -70.70805 8834 ft 307 kts 45°
2026-05-06 01:30 42.06099 -70.68695 8652 ft 309 kts 45°
2026-05-06 01:31 42.07545 -70.66557 8438 ft 308 kts 46°
2026-05-06 01:31 42.08960 -70.64441 8263 ft 307 kts 46°
2026-05-06 01:31 42.10429 -70.62387 8049 ft 300 kts 34°
2026-05-06 01:31 42.12256 -70.61158 7809 ft 289 kts
2026-05-06 01:32 42.14209 -70.60606 7567 ft 288 kts
2026-05-06 01:32 42.16184 -70.60080 7314 ft 291 kts
2026-05-06 01:32 42.18187 -70.59543 7035 ft 295 kts
2026-05-06 01:32 42.20195 -70.58996 6726 ft 294 kts
2026-05-06 01:33 42.22198 -70.58444 6437 ft 292 kts
2026-05-06 01:33 42.24183 -70.57892 6153 ft 290 kts
2026-05-06 01:33 42.26156 -70.57342 5855 ft 288 kts
2026-05-06 01:33 42.28113 -70.56795 5578 ft 286 kts
2026-05-06 01:34 42.30054 -70.56252 5306 ft 284 kts
2026-05-06 01:34 42.31944 -70.56086 5070 ft 260 kts 339°
2026-05-06 01:34 42.33550 -70.56970 5027 ft 248 kts 318°
2026-05-06 01:34 42.34877 -70.58407 5007 ft 247 kts 309°
2026-05-06 01:35 42.36114 -70.60022 5029 ft 247 kts 307°
2026-05-06 01:35 42.37333 -70.61657 4981 ft 245 kts 307°
2026-05-06 01:35 42.38541 -70.63276 4986 ft 244 kts 307°
2026-05-06 01:35 42.39745 -70.64884 4985 ft 243 kts 307°
2026-05-06 01:36 42.40947 -70.66482 4987 ft 242 kts 307°
2026-05-06 01:36 42.42147 -70.68075 4985 ft 241 kts 307°
2026-05-06 01:36 42.43348 -70.69666 4977 ft 242 kts 307°
2026-05-06 01:36 42.44553 -70.71259 4979 ft 242 kts 307°
2026-05-06 01:37 42.45757 -70.72850 4973 ft 242 kts 307°
2026-05-06 01:37 42.46965 -70.74443 4978 ft 242 kts 307°
2026-05-06 01:37 42.48169 -70.76033 4978 ft 242 kts 307°
2026-05-06 01:37 42.49377 -70.77629 4998 ft 243 kts 307°
2026-05-06 01:38 42.50587 -70.79228 4983 ft 244 kts 307°
2026-05-06 01:38 42.51796 -70.80823 4982 ft 238 kts 307°
2026-05-06 01:38 42.52952 -70.82345 4979 ft 228 kts 307°
2026-05-06 01:38 42.54079 -70.83817 4979 ft 224 kts 307°
2026-05-06 01:39 42.55184 -70.85260 4984 ft 224 kts 307°
2026-05-06 01:39 42.56255 -70.86759 4983 ft 219 kts 308°
2026-05-06 01:39 42.57635 -70.87789 4989 ft 241 kts 339°
2026-05-06 01:39 42.59367 -70.87705 4990 ft 262 kts 11°
2026-05-06 01:40 42.60962 -70.86440 4991 ft 276 kts 42°
2026-05-06 01:40 42.62080 -70.84309 5010 ft 279 kts 60°
2026-05-06 01:40 42.62781 -70.81871 4973 ft 277 kts 87°
2026-05-06 01:40 42.62785 -70.79296 5015 ft 274 kts 96°
2026-05-06 01:41 42.62759 -70.76700 4957 ft 273 kts 90°
2026-05-06 01:41 42.63279 -70.74235 4676 ft 273 kts 53°
2026-05-06 01:41 42.64645 -70.72605 4551 ft 258 kts 18°
2026-05-06 01:41 42.66326 -70.71848 4509 ft 252 kts
2026-05-06 01:42 42.67955 -70.72023 4472 ft 224 kts 323°
2026-05-06 01:42 42.69081 -70.73294 4445 ft 207 kts 296°
2026-05-06 01:42 42.69731 -70.75003 4369 ft 202 kts 280°
2026-05-06 01:42 42.69904 -70.76835 4265 ft 191 kts 261°
2026-05-06 01:43 42.69562 -70.78523 4183 ft 183 kts 245°
2026-05-06 01:43 42.68918 -70.79973 4101 ft 182 kts 231°
2026-05-06 01:43 42.67910 -70.81029 4036 ft 186 kts 217°
2026-05-06 01:43 42.66764 -70.81925 3949 ft 194 kts 215°
2026-05-06 01:44 42.65584 -70.82821 3887 ft 194 kts 215°
2026-05-06 01:44 42.64410 -70.83713 3791 ft 193 kts 215°
2026-05-06 01:44 42.63245 -70.84602 3731 ft 191 kts 215°
2026-05-06 01:44 42.62089 -70.85488 3623 ft 190 kts 215°
2026-05-06 01:45 42.60956 -70.86359 3530 ft 187 kts 215°
2026-05-06 01:45 42.59824 -70.87232 3465 ft 186 kts 216°
2026-05-06 01:45 42.58701 -70.88099 3392 ft 186 kts 216°
2026-05-06 01:45 42.57576 -70.88970 3325 ft 186 kts 215°
2026-05-06 01:46 42.56475 -70.89819 3220 ft 178 kts 215°
2026-05-06 01:46 42.55444 -70.90613 3124 ft 165 kts 215°
2026-05-06 01:46 42.54460 -70.91373 3109 ft 158 kts 215°
2026-05-06 01:46 42.53557 -70.92022 3058 ft 135 kts 214°
2026-05-06 01:47 42.52729 -70.92539 2959 ft 130 kts 212°
2026-05-06 01:47 42.51903 -70.92994 2796 ft 125 kts 211°
2026-05-06 01:47 42.51127 -70.93395 2649 ft 118 kts 210°
2026-05-06 01:47 42.50368 -70.93772 2531 ft 116 kts 210°
2026-05-06 01:48 42.49615 -70.94144 2404 ft 115 kts 210°
2026-05-06 01:48 42.48862 -70.94511 2288 ft 115 kts 210°
2026-05-06 01:48 42.48113 -70.94875 2136 ft 114 kts 209°
2026-05-06 01:48 42.47380 -70.95232 2019 ft 112 kts 208°
2026-05-06 01:49 42.46626 -70.95601 1891 ft 118 kts 207°
2026-05-06 01:49 42.45854 -70.95976 1779 ft 118 kts 207°
2026-05-06 01:49 42.45088 -70.96347 1627 ft 115 kts 207°
2026-05-06 01:49 42.44319 -70.96722 1478 ft 118 kts 207°
2026-05-06 01:50 42.43545 -70.97097 1308 ft 119 kts 205°
2026-05-06 01:50 42.42749 -70.97481 1152 ft 123 kts 205°
2026-05-06 01:50 42.41938 -70.97876 993 ft 124 kts 204°
2026-05-06 01:50 42.41095 -70.98285 825 ft 133 kts 201°
2026-05-06 01:51 42.40418 -70.98611 696 ft 138 kts 201°
2026-05-06 01:51 42.39515 -70.99048 520 ft 140 kts 200°
2026-05-06 01:51 42.38631 -70.99478 322 ft 131 kts 200°
2026-05-06 01:51 42.37790 -70.99889 136 ft 132 kts 200°
2026-05-06 01:52 42.36969 -71.00291 33 ft 119 kts 199°
2026-05-06 01:52 42.36261 -71.00628 30 ft 99 kts 199°
2026-05-06 01:52 42.35714 -71.00888 30 ft 41 kts 200°
2026-05-06 01:52 42.35475 -71.01006 30 ft 34 kts 200°
2026-05-06 01:53 42.35387 -71.01123 30 ft 10 kts 291°
2026-05-06 01:53 42.35411 -71.01213 30 ft 11 kts 288°
2026-05-06 01:53 42.35435 -71.01307 30 ft 11 kts 290°
2026-05-06 01:53 42.35484 -71.01361 30 ft 10 kts
2026-05-06 01:54 42.35519 -71.01348 30 ft 0 kts 17°
2026-05-06 01:55 42.35522 -71.01347 30 ft 1 kts 17°
2026-05-06 01:55 42.35580 -71.01327 30 ft 22 kts 10°
2026-05-06 01:55 42.35709 -71.01293 30 ft 12 kts 351°
2026-05-06 01:55 42.35754 -71.01366 30 ft 15 kts 293°
2026-05-06 01:56 42.35814 -71.01550 30 ft 22 kts 317°
2026-05-06 01:56 42.35931 -71.01530 29 ft 21 kts 22°
2026-05-06 01:56 42.36081 -71.01457 30 ft 24 kts 19°
2026-05-06 01:56 42.36242 -71.01379 30 ft 25 kts 19°
2026-05-06 01:57 42.36404 -71.01301 30 ft 25 kts 19°
2026-05-06 01:57 42.36567 -71.01223 30 ft 25 kts 19°
2026-05-06 01:57 42.36730 -71.01147 30 ft 25 kts 12°
2026-05-06 01:57 42.36873 -71.01258 30 ft 25 kts 315°
2026-05-06 01:58 42.36995 -71.01422 30 ft 25 kts 315°
2026-05-06 01:58 42.37105 -71.01571 30 ft 11 kts 315°
2026-05-06 01:58 42.37141 -71.01662 30 ft 12 kts 265°
2026-05-06 01:58 42.37137 -71.01769 30 ft 12 kts 287°
2026-05-06 01:59 42.37171 -71.01854 30 ft 4 kts 295°
2026-05-06 01:59 42.37164 -71.01889 30 ft 4 kts 235°
2026-05-06 01:59 42.37154 -71.01898 30 ft 4 kts 205°
2026-05-06 01:59 42.37132 -71.01911 30 ft 3 kts 210°
2026-05-06 02:00 42.37115 -71.01925 30 ft 3 kts 211°
2026-05-06 02:00 42.37110 -71.01929 30 ft 0 kts 211°